C31FR-13 Weather Reports


Display with metric or nautical units.
time (UTC)temp
F
wind
direction
speed
MPH
gust
MPH
rain 1hr
in
rain 24hr
in
rain mn
in
humidity
%
barometer
mb
20260507225103 51 0.0 0.0 0.00 0.00 0.00 80 1015.5
20260507224602 51 0.0 0.0 0.00 0.00 0.00 79 1015.6
20260507224102 51 0.0 0.0 0.00 0.00 0.00 74 1015.5
20260507223603 51 0.0 0.0 0.00 0.00 0.00 74 1015.5
20260507222602 52 0.0 0.0 0.00 0.00 0.00 75 1015.5
20260507222103 52 0.0 0.0 0.00 0.00 0.00 74 1015.5
20260507221102 52 0.0 0.0 0.00 0.00 0.00 75 1015.5
20260507220603 52 0.0 0.0 0.00 0.00 0.00 76 1015.4
20260507215602 52 0.0 0.0 0.00 0.00 0.00 76 1015.4
20260507215103 52 0.0 0.0 0.00 0.00 0.00 77 1015.3
20260507214602 52 0.0 0.0 0.00 0.00 0.00 79 1015.3
20260507213102 52 0.0 0.0 0.00 0.00 0.00 84 1015.1
20260507212602 52 0.0 0.0 0.00 0.00 0.00 87 1015.0
20260507212102 52 0.0 0.0 0.00 0.00 0.00 85 1014.9
20260507211603 52 0.0 0.0 0.00 0.00 0.00 85 1014.8
20260507211102 52 0.0 0.0 0.00 0.00 0.00 84 1014.8
20260507210603 53 0.0 0.0 0.00 0.00 0.00 82 1014.8
20260507205603 53 0.0 0.0 0.00 0.00 0.00 81 1014.7
20260507205103 53 0.0 0.0 0.00 0.00 0.00 77 1014.7
20260507204602 53 0.0 0.0 0.00 0.00 0.00 74 1014.7
20260507204103 53 0.0 0.0 0.00 0.00 0.00 74 1014.5
20260507203602 53 0.0 0.0 0.00 0.00 0.00 74 1014.5
20260507203103 54 0.0 0.0 0.00 0.00 0.00 73 1014.3
20260507202602 54 0.0 0.0 0.00 0.00 0.00 73 1014.2
20260507202103 54 0.0 0.0 0.00 0.00 0.00 72 1014.2
20260507201602 54 0.0 0.0 0.00 0.00 0.00 71 1014.1
20260507201103 54 0.0 0.0 0.00 0.00 0.00 71 1013.9
20260507200602 55 0.0 0.0 0.00 0.00 0.00 68 1013.8
20260507195602 56 0.0 0.0 0.00 0.00 0.00 63 1013.4
20260507195102 56 0.0 0.0 0.00 0.00 0.00 62 1013.3
20260507194603 57 0.0 0.0 0.00 0.00 0.00 58 1013.2
20260507194102 57 0.0 0.0 0.00 0.00 0.00 57 1012.9
20260507193102 58 0.0 0.0 0.00 0.00 0.00 55 1012.6
20260507192602 58 0.0 0.0 0.00 0.00 0.00 55 1012.4
20260507192102 58 0.0 0.0 0.00 0.00 0.00 55 1012.3
20260507191602 58 0.0 0.0 0.00 0.00 0.00 55 1012.2
20260507191102 58 0.0 0.0 0.00 0.00 0.00 54 1012.0
20260507190602 59 0.0 0.0 0.00 0.00 0.00 53 1012.0
20260507185102 60 0.0 0.0 0.00 0.00 0.00 47 1011.8
20260507184603 60 0.0 0.0 0.00 0.00 0.00 45 1011.7
20260507184103 60 0.0 0.0 0.00 0.00 0.00 45 1011.5
20260507183602 60 0.0 0.0 0.00 0.00 0.00 45 1011.5
20260507183102 61 0.0 0.0 0.00 0.00 0.00 44 1011.4
20260507182602 60 0.0 0.0 0.00 0.00 0.00 44 1011.3
20260507182102 61 0.0 0.0 0.00 0.00 0.00 43 1011.2
20260507181602 61 0.0 0.0 0.00 0.00 0.00 43 1011.2
20260507181103 61 0.0 0.0 0.00 0.00 0.00 42 1011.2
20260507180602 62 0.0 0.0 0.00 0.00 0.00 42 1011.1
20260507175603 62 0.0 0.0 0.00 0.00 0.00 43 1010.9
20260507175102 62 0.0 0.0 0.00 0.00 0.00 43 1011.0
20260507174603 62 0.0 0.0 0.00 0.00 0.00 42 1011.0
20260507174101 62 0.0 0.0 0.00 0.00 0.00 42 1010.9
20260507173602 62 0.0 0.0 0.00 0.00 0.00 42 1010.8
20260507173102 62 0.0 0.0 0.00 0.00 0.00 41 1010.8
20260507172603 62 0.0 0.0 0.00 0.00 0.00 41 1010.8
20260507172101 63 0.0 0.0 0.00 0.00 0.00 41 1010.7
20260507171603 63 0.0 0.0 0.00 0.00 0.00 40 1010.6
20260507171102 64 0.0 0.0 0.00 0.00 0.00 40 1010.6
20260507170603 63 0.0 0.0 0.00 0.00 0.00 40 1010.5
20260507165602 64 0.0 0.0 0.00 0.00 0.00 39 1010.6
20260507165102 64 0.0 0.0 0.00 0.00 0.00 39 1010.6
20260507164602 65 0.0 0.0 0.00 0.00 0.00 38 1010.6
20260507163602 66 0.0 0.0 0.00 0.00 0.00 37 1010.5
20260507163102 66 0.0 0.0 0.00 0.00 0.00 38 1010.5
20260507162602 67 0.0 0.0 0.00 0.00 0.00 38 1010.4
20260507162103 67 0.0 0.0 0.00 0.00 0.00 38 1010.5
20260507161603 67 0.0 0.0 0.00 0.00 0.00 38 1010.5
20260507161102 68 0.0 0.0 0.00 0.00 0.00 37 1010.5
20260507160602 68 0.0 0.0 0.00 0.00 0.00 35 1010.4
20260507155603 67 0.0 0.0 0.00 0.00 0.00 37 1010.5
20260507155102 67 0.0 0.0 0.00 0.00 0.00 36 1010.5
20260507154602 67 0.0 0.0 0.00 0.00 0.00 34 1010.4
20260507154102 67 0.0 0.0 0.00 0.00 0.00 34 1010.2
20260507153602 66 0.0 0.0 0.00 0.00 0.00 35 1010.3
20260507153103 65 0.0 0.0 0.00 0.00 0.00 36 1010.3
20260507152603 65 0.0 0.0 0.00 0.00 0.00 35 1010.3
20260507152101 66 0.0 0.0 0.00 0.00 0.00 36 1010.3
20260507151603 65 0.0 0.0 0.00 0.00 0.00 36 1010.4
20260507151103 65 0.0 0.0 0.00 0.00 0.00 35 1010.4
20260507150602 65 0.0 0.0 0.00 0.00 0.00 34 1010.3
20260507145603 65 0.0 0.0 0.00 0.00 0.00 33 1010.2
20260507145102 65 0.0 0.0 0.00 0.00 0.00 33 1010.2
20260507144603 66 0.0 0.0 0.00 0.00 0.00 32 1010.1
20260507144102 66 0.0 0.0 0.00 0.00 0.00 33 1010.1
20260507143603 66 0.0 0.0 0.00 0.00 0.00 32 1010.2
20260507142603 65 0.0 0.0 0.00 0.00 0.00 33 1010.3
20260507142101 64 0.0 0.0 0.00 0.00 0.00 34 1010.4
20260507141602 64 0.0 0.0 0.00 0.00 0.00 34 1010.4
20260507141102 63 0.0 0.0 0.00 0.00 0.00 36 1010.6
20260507140603 64 0.0 0.0 0.00 0.00 0.00 35 1010.5
20260507135603 64 0.0 0.0 0.00 0.00 0.00 37 1010.7
20260507135103 63 0.0 0.0 0.00 0.00 0.00 36 1010.8
20260507134602 64 0.0 0.0 0.00 0.00 0.00 36 1010.8
20260507134102 63 0.0 0.0 0.00 0.00 0.00 37 1010.8
20260507133603 63 0.0 0.0 0.00 0.00 0.00 38 1011.0
20260507133102 63 0.0 0.0 0.00 0.00 0.00 37 1011.0
20260507132603 63 0.0 0.0 0.00 0.00 0.00 38 1011.1
20260507132102 62 0.0 0.0 0.00 0.00 0.00 39 1011.1
20260507131603 62 0.0 0.0 0.00 0.00 0.00 38 1011.1
20260507131103 62 0.0 0.0 0.00 0.00 0.00 39 1011.2
20260507130602 62 0.0 0.0 0.00 0.00 0.00 39 1011.3
20260507125603 61 0.0 0.0 0.00 0.00 0.00 40 1011.3
20260507125103 61 0.0 0.0 0.00 0.00 0.00 40 1011.4
20260507124603 61 0.0 0.0 0.00 0.00 0.00 41 1011.4
20260507124103 61 0.0 0.0 0.00 0.00 0.00 41 1011.4
20260507123602 61 0.0 0.0 0.00 0.00 0.00 42 1011.5
20260507123102 61 0.0 0.0 0.00 0.00 0.00 42 1011.6
20260507122603 61 0.0 0.0 0.00 0.00 0.00 43 1011.6
20260507122102 60 0.0 0.0 0.00 0.00 0.00 44 1011.7
20260507121603 61 0.0 0.0 0.00 0.00 0.00 44 1011.7
20260507121103 60 0.0 0.0 0.00 0.00 0.00 44 1011.7
20260507120603 60 0.0 0.0 0.00 0.00 0.00 45 1011.8
20260507115603 60 0.0 0.0 0.00 0.00 0.00 45 1011.8
20260507115102 60 0.0 0.0 0.00 0.00 0.00 45 1011.9
20260507114602 59 0.0 0.0 0.00 0.00 0.00 45 1012.1
20260507114102 60 0.0 0.0 0.00 0.00 0.00 44 1012.1
20260507113603 59 0.0 0.0 0.00 0.00 0.00 45 1012.2
20260507113103 59 0.0 0.0 0.00 0.00 0.00 46 1012.3
20260507112602 59 0.0 0.0 0.00 0.00 0.00 45 1012.3
20260507112103 59 0.0 0.0 0.00 0.00 0.00 46 1012.3
20260507111602 59 0.0 0.0 0.00 0.00 0.00 46 1012.4
20260507111103 59 0.0 0.0 0.00 0.00 0.00 46 1012.5
20260507110602 59 0.0 0.0 0.00 0.00 0.00 46 1012.5
20260507105603 58 0.0 0.0 0.00 0.00 0.00 48 1012.7
20260507105103 58 0.0 0.0 0.00 0.00 0.00 48 1012.7
20260507104603 58 0.0 0.0 0.00 0.00 0.00 47 1012.7
20260507104102 58 0.0 0.0 0.00 0.00 0.00 45 1012.8
20260507103602 57 0.0 0.0 0.00 0.00 0.00 46 1012.8
20260507103102 57 0.0 0.0 0.00 0.00 0.00 47 1012.8
20260507102602 57 0.0 0.0 0.00 0.00 0.00 49 1012.9
20260507102102 57 0.0 0.0 0.00 0.00 0.00 50 1013.0
20260507101603 56 0.0 0.0 0.00 0.00 0.00 49 1013.1
20260507101102 56 0.0 0.0 0.00 0.00 0.00 49 1013.3
20260507100602 56 0.0 0.0 0.00 0.00 0.00 50 1013.4
20260507095603 56 0.0 0.0 0.00 0.00 0.00 52 1013.4
20260507095103 55 0.0 0.0 0.00 0.00 0.00 53 1013.4
20260507094603 55 0.0 0.0 0.00 0.00 0.00 52 1013.5
20260507094102 55 0.0 0.0 0.00 0.00 0.00 54 1013.5
20260507093602 55 0.0 0.0 0.00 0.00 0.00 54 1013.5
20260507093103 55 0.0 0.0 0.00 0.00 0.00 55 1013.7
20260507092102 54 0.0 0.0 0.00 0.00 0.00 56 1013.7
20260507091602 54 0.0 0.0 0.00 0.00 0.00 60 1013.7
20260507091103 53 0.0 0.0 0.00 0.00 0.00 60 1013.7
20260507085102 53 0.0 0.0 0.00 0.00 0.00 64 1013.7
20260507084602 53 0.0 0.0 0.00 0.00 0.00 64 1013.8
20260507084102 53 0.0 0.0 0.00 0.00 0.00 69 1013.7
20260507083603 53 0.0 0.0 0.00 0.00 0.00 68 1013.8
20260507083103 52 0.0 0.0 0.00 0.00 0.00 68 1013.9
20260507082603 52 0.0 0.0 0.00 0.00 0.00 70 1013.9
20260507082108 52 0.0 0.0 0.00 0.00 0.00 70 1013.9
20260507081602 51 0.0 0.0 0.00 0.00 0.00 71 1014.0
20260507081102 51 0.0 0.0 0.00 0.00 0.00 73 1014.0
20260507080602 51 0.0 0.0 0.00 0.00 0.00 75 1014.0
20260507075603 51 0.0 0.0 0.00 0.00 0.00 75 1014.2
20260507075102 51 0.0 0.0 0.00 0.00 0.00 76 1014.2
20260507074602 51 0.0 0.0 0.00 0.00 0.00 75 1014.2
20260507074103 50 0.0 0.0 0.00 0.00 0.00 76 1014.2
20260507073602 50 0.0 0.0 0.00 0.00 0.00 77 1014.2
20260507073102 50 0.0 0.0 0.00 0.00 0.00 78 1014.3
20260507072602 51 0.0 0.0 0.00 0.00 0.00 78 1014.2
20260507072102 50 0.0 0.0 0.00 0.00 0.00 81 1014.2
20260507071602 50 0.0 0.0 0.00 0.00 0.00 79 1014.2
20260507071102 50 0.0 0.0 0.00 0.00 0.00 78 1014.2
20260507070603 50 0.0 0.0 0.00 0.00 0.00 81 1014.2
20260507065602 50 0.0 0.0 0.00 0.00 0.00 81 1014.2
20260507065103 50 0.0 0.0 0.00 0.00 0.00 80 1014.1
20260507064603 50 0.0 0.0 0.00 0.00 0.00 81 1014.2
20260507064102 49 0.0 0.0 0.00 0.00 0.00 83 1014.2
20260507063103 49 0.0 0.0 0.00 0.00 0.00 84 1014.3
20260507062602 49 0.0 0.0 0.00 0.00 0.00 83 1014.2
20260507062102 49 0.0 0.0 0.00 0.00 0.00 84 1014.2
20260507061602 49 0.0 0.0 0.00 0.00 0.00 85 1014.2
20260507061102 49 0.0 0.0 0.00 0.00 0.00 84 1014.3
20260507060602 49 0.0 0.0 0.00 0.00 0.00 85 1014.3
20260507055602 49 0.0 0.0 0.00 0.00 0.00 85 1014.4
20260507055103 49 0.0 0.0 0.00 0.00 0.00 85 1014.4
20260507054603 49 0.0 0.0 0.00 0.00 0.00 87 1014.3
20260507054102 48 0.0 0.0 0.00 0.00 0.00 88 1014.3
20260507053603 49 0.0 0.0 0.00 0.00 0.00 86 1014.3
20260507053102 49 0.0 0.0 0.00 0.00 0.00 84 1014.3
20260507052603 47 0.0 0.0 0.00 0.00 0.00 85 1014.3
20260507052102 47 0.0 0.0 0.00 0.00 0.00 87 1014.3
20260507051603 47 0.0 0.0 0.00 0.00 0.00 86 1014.2
20260507051102 47 0.0 0.0 0.00 0.00 0.00 86 1014.2
20260507050603 48 0.0 0.0 0.00 0.00 0.00 87 1014.1
20260507045102 49 0.0 0.0 0.00 0.00 0.00 86 1013.9
20260507044603 48 0.0 0.0 0.00 0.00 0.00 88 1013.9
20260507044101 49 0.0 0.0 0.00 0.00 0.00 86 1013.9
20260507043603 49 0.0 0.0 0.00 0.00 0.00 87 1013.9
20260507043102 49 0.0 0.0 0.00 0.00 0.00 88 1013.8
20260507042604 49 0.0 0.0 0.00 0.00 0.00 87 1013.9
20260507042103 50 0.0 0.0 0.00 0.00 0.00 86 1013.8
20260507041603 49 0.0 0.0 0.00 0.00 0.00 87 1013.8
20260507041102 49 0.0 0.0 0.00 0.00 0.00 89 1013.9
20260507040604 49 0.0 0.0 0.00 0.00 0.00 89 1013.8
20260507035602 49 0.0 0.0 0.00 0.00 0.00 88 1013.8
20260507035103 50 0.0 0.0 0.00 0.00 0.00 87 1013.8
20260507034602 50 0.0 0.0 0.00 0.00 0.00 88 1013.7
20260507034102 50 0.0 0.0 0.00 0.00 0.00 88 1013.7
20260507033603 49 0.0 0.0 0.00 0.00 0.00 87 1013.8
20260507033102 50 0.0 0.0 0.00 0.00 0.00 87 1013.8
20260507032602 50 0.0 0.0 0.00 0.00 0.00 88 1013.8
20260507032102 50 0.0 0.0 0.00 0.00 0.00 89 1013.8
20260507031603 49 0.0 0.0 0.00 0.00 0.00 91 1013.8
20260507031102 49 0.0 0.0 0.00 0.00 0.00 92 1013.8
20260507030602 49 0.0 0.0 0.00 0.00 0.00 91 1013.9
20260507025603 49 0.0 0.0 0.00 0.00 0.00 93 1013.9
20260507025103 50 0.0 0.0 0.00 0.00 0.00 89 1013.9
20260507024603 50 0.0 0.0 0.00 0.00 0.00 89 1013.9
20260507024103 49 0.0 0.0 0.00 0.00 0.00 90 1014.0
20260507022603 49 0.0 0.0 0.00 0.00 0.00 90 1014.0
20260507022102 49 0.0 0.0 0.00 0.00 0.00 90 1014.0
20260507021603 49 0.0 0.0 0.00 0.00 0.00 90 1013.9
20260507021102 50 0.0 0.0 0.00 0.00 0.00 88 1013.8
20260507020603 50 0.0 0.0 0.00 0.00 0.00 86 1013.8
20260507020104 49 0.0 0.0 0.00 0.00 0.00 89 1013.9
20260507015603 49 0.0 0.0 0.00 0.00 0.00 89 1013.9
20260507015104 49 0.0 0.0 0.00 0.00 0.00 90 1013.9
20260507014102 49 0.0 0.0 0.00 0.00 0.00 87 1014.0
20260507013601 50 0.0 0.0 0.00 0.00 0.00 86 1013.9
20260507013103 49 0.0 0.0 0.00 0.00 0.00 89 1014.0
20260507012602 48 0.0 0.0 0.00 0.00 0.00 88 1014.0
20260507012103 49 0.0 0.0 0.00 0.00 0.00 87 1013.9
20260507011603 49 0.0 0.0 0.00 0.00 0.00 84 1013.9
20260507011103 49 0.0 0.0 0.00 0.00 0.00 85 1013.8
20260507010602 50 0.0 0.0 0.00 0.00 0.00 85 1013.9
20260507005603 50 0.0 0.0 0.00 0.00 0.00 84 1013.9
20260507005102 50 0.0 0.0 0.00 0.00 0.00 85 1014.0
20260507004602 50 0.0 0.0 0.00 0.00 0.00 87 1014.1
20260507004103 50 0.0 0.0 0.00 0.00 0.00 86 1014.2
20260507003603 50 0.0 0.0 0.00 0.00 0.00 85 1014.2
20260507003102 50 0.0 0.0 0.00 0.00 0.00 85 1014.2
20260507002603 50 0.0 0.0 0.00 0.00 0.00 84 1014.2
20260507002102 50 0.0 0.0 0.00 0.00 0.00 85 1014.3
20260507001602 50 0.0 0.0 0.00 0.00 0.00 85 1014.3
20260507001102 49 0.0 0.0 0.00 0.00 0.00 86 1014.4
20260507000602 50 0.0 0.0 0.00 0.00 0.00 85 1014.3
20260506235602 50 0.0 0.0 0.00 0.00 0.00 87 1014.4
20260506235102 50 0.0 0.0 0.00 0.00 0.00 86 1014.4
20260506234603 50 0.0 0.0 0.00 0.00 0.00 86 1014.3
20260506234102 50 0.0 0.0 0.00 0.00 0.00 84 1014.3
20260506233602 49 0.0 0.0 0.00 0.00 0.00 86 1014.4
20260506233103 48 0.0 0.0 0.00 0.00 0.00 86 1014.4
20260506232603 49 0.0 0.0 0.00 0.00 0.00 84 1014.3
20260506232103 49 0.0 0.0 0.00 0.00 0.00 84 1014.3
20260506231602 50 0.0 0.0 0.00 0.00 0.00 85 1014.3
20260506231102 49 0.0 0.0 0.00 0.00 0.00 85 1014.3
20260506230603 49 0.0 0.0 0.00 0.00 0.00 86 1014.3
20260506225603 49 0.0 0.0 0.00 0.00 0.00 88 1014.3